Location: Unspecified
(40.8819°N, 0.0000°E)
Time: 09:00:23
(UTC+00:00)

NANOSAT C BR1 - Pass Details

Date: 02 May 2024
Orbit: 555 x 561 km, 98.1° (Epoch: 25 May)

Event Time Altitude Azimuth Distance (km) Brightness Sun altitude
Rises 03:45:04 0° 15° (NNE) 2,767 ? -12.8°
Reaches altitude 10° 03:47:13 10° 17° (NNE) 1,866 ? -12.5°
Maximum altitude 03:51:15 72° 102° (ESE) 596 ? -11.8°
Drops below altitude 10° 03:55:15 10° 187° (S) 1,849 ? -11.2°
Enters shadow 03:56:24 - 189° (S) 2,326 ? -11.0°
